Rogers, AR

1:24 AM CDT on June 26, 2017 (GMT -0500)
Rogers Municipal-Carter

Weather History for KROG - June, 2013

Change the Weather History Date:

Monday, June 10, 2013

  Actual Average Record
Temperature  
Mean Temperature 78 °F -  
Max Temperature 91 °F 77 °F 91 °F (2013)
Min Temperature 66 °F 60 °F 33 °F (2008)
Cooling Degree Days 14    
Growing Degree Days 28 (Base 50)    
Moisture  
Dew Point 64 °F    
Average Humidity 61    
Maximum Humidity 78    
Minimum Humidity 38    
Precipitation  
Precipitation 0.00 in - - ()
Sea Level Pressure  
Sea Level Pressure 29.89 in    
Wind  
Wind Speed 9 mph (SW)    
Max Wind Speed 18 mph    
Max Gust Speed 24 mph    
Visibility 10 miles    
Events      
Averages and records for this station are not official NWS values.
T = Trace of Precipitation, MM = Missing Value Source: NWS Daily Summary

Daily Weather History Graph

Daily Weather History Graph

Search for Another Location

Airport or City:

Trip Planner

Search our weather history database for the weather conditions in past years. The results will help you decide how hot, cold, wet, or windy it might be!

Date:

Astronomy

Jun. 10, 2013 Rise Set
Actual Time 5:58 AM CDT 8:33 PM CDT
Civil Twilight 5:27 AM CDT 9:04 PM CDT
Nautical Twilight 4:50 AM CDT 9:41 PM CDT
Astronomical Twilight 4:08 AM CDT 10:23 PM CDT
Moon 7:45 AM CDT (6/10) 10:04 PM CDT (6/10)
Length of Visible Light 15h 36m
Length of Day
14h 35m
Waxing Crescent, 4% of the Moon is Illuminated
Jun 10
Waxing Crescent
Jun 16
First Quarter
Jun 23
Full
Jun 29
Last Quarter
Jul 8
New

Hourly Weather History & Observations

Time (CDT) Temp. Heat Index Dew Point Humidity Pressure Visibility Wind Dir Wind Speed Gust Speed Precip Events Conditions
12:57 AM 68.0 °F - 57.9 °F 70% 29.87 in 10.0 mi South 5.8 mph - N/A   Partly Cloudy
1:57 AM 66.9 °F - 57.9 °F 73% 29.86 in 10.0 mi South 11.5 mph - N/A   Clear
2:57 AM 66.9 °F - 57.0 °F 70% 29.86 in 10.0 mi SSW 9.2 mph - N/A   Clear
3:57 AM 66.9 °F - 57.9 °F 73% 29.86 in 10.0 mi SW 8.1 mph - N/A   Overcast
4:57 AM 66.0 °F - 59.0 °F 78% 29.87 in 10.0 mi SW 9.2 mph - N/A   Partly Cloudy
5:57 AM 66.0 °F - 59.0 °F 78% 29.90 in 10.0 mi West 3.5 mph - N/A   Mostly Cloudy
6:57 AM 68.0 °F - 61.0 °F 78% 29.91 in 10.0 mi WSW 4.6 mph - N/A   Mostly Cloudy
7:57 AM 71.1 °F - 64.0 °F 78% 29.91 in 10.0 mi WSW 4.6 mph - N/A   Clear
8:57 AM 77.0 °F - 64.9 °F 66% 29.93 in 10.0 mi WSW 10.4 mph 17.3 mph N/A   Partly Cloudy
9:57 AM 80.1 °F 82.3 °F 66.9 °F 64% 29.93 in 10.0 mi WSW 11.5 mph 16.1 mph N/A   Clear
10:57 AM 82.0 °F 84.9 °F 68.0 °F 62% 29.92 in 10.0 mi SW 15.0 mph 20.7 mph N/A   Clear
11:57 AM 84.9 °F 88.2 °F 68.0 °F 57% 29.91 in 10.0 mi SW 18.4 mph 24.2 mph N/A   Clear
12:57 PM 88.0 °F 91.4 °F 68.0 °F 51% 29.90 in 10.0 mi WSW 13.8 mph 20.7 mph N/A   Clear
1:57 PM 89.1 °F 90.3 °F 64.0 °F 43% 29.89 in 10.0 mi WSW 13.8 mph 23.0 mph N/A   Clear
2:57 PM 91.0 °F 91.5 °F 62.1 °F 38% 29.87 in 10.0 mi WSW 16.1 mph 23.0 mph N/A   Clear
3:57 PM 91.9 °F 93.3 °F 64.0 °F 39% 29.87 in 10.0 mi SW 10.4 mph 18.4 mph N/A   Clear
4:57 PM 91.9 °F 95.4 °F 66.9 °F 44% 29.87 in 10.0 mi WSW 13.8 mph 17.3 mph N/A   Clear
5:57 PM 91.9 °F 95.9 °F 68.0 °F 45% 29.88 in 10.0 mi SSW 8.1 mph - N/A   Clear
6:57 PM 90.0 °F 92.8 °F 66.9 °F 46% 29.88 in 10.0 mi SW 11.5 mph - N/A   Clear
7:57 PM 87.1 °F 89.2 °F 66.0 °F 49% 29.89 in 10.0 mi SW 8.1 mph - N/A   Clear
8:57 PM 81.0 °F 83.0 °F 66.0 °F 60% 29.89 in 10.0 mi South 3.5 mph - N/A   Clear
9:57 PM 78.1 °F - 66.0 °F 66% 29.90 in 10.0 mi South 6.9 mph - N/A   Clear
10:57 PM 77.0 °F - 64.9 °F 66% 29.91 in 10.0 mi SSW 9.2 mph - N/A   Clear
11:57 PM 77.0 °F - 64.9 °F 66% 29.91 in 10.0 mi SSW 8.1 mph - N/A   Clear